EW4819 Weather Reports


time (UTC)temp
C
wind
direction
speed
KPH
gust
KPH
rain 1hr
cm
rain 24hr
cm
rain mn
cm
humidity
%
barometer
mb
20260507135502 13 171 0.0 3.2 0.00 0.00 0.00 70 1014.1
20260507135002 13 172 0.0 3.2 0.00 0.00 0.00 70 1014.1
20260507134502 13 172 0.0 4.8 0.00 0.00 0.00 70 1014.2
20260507134023 13 171 1.6 4.8 0.00 0.00 0.00 70 1014.2
20260507133502 13 174 1.6 4.8 0.00 0.00 0.00 70 1014.1
20260507133004 13 194 1.6 8.0 0.00 0.00 0.00 69 1014.1
20260507132502 13 196 3.2 8.0 0.00 0.00 0.00 68 1014.1
20260507132002 13 192 1.6 8.0 0.00 0.00 0.00 68 1014.2
20260507131502 13 186 1.6 4.8 0.00 0.00 0.00 68 1014.2
20260507131002 14 187 3.2 9.7 0.00 0.00 0.00 67 1014.2
20260507130502 14 193 3.2 9.7 0.00 0.00 0.00 66 1014.2
20260507130002 14 179 4.8 9.7 0.00 0.00 0.00 65 1014.2
20260507125502 14 166 3.2 9.7 0.00 0.00 0.00 63 1014.2
20260507125001 14 172 1.6 6.4 0.00 0.00 0.00 60 1014.2
20260507124502 14 188 3.2 8.0 0.00 0.00 0.00 60 1014.2
20260507124002 14 181 4.8 8.0 0.00 0.00 0.00 60 1014.1
20260507123523 14 169 4.8 12.9 0.00 0.00 0.00 59 1014.2
20260507123002 15 171 6.4 12.9 0.00 0.00 0.00 59 1014.2
20260507122523 15 165 4.8 12.9 0.00 0.00 0.00 59 1014.2
20260507122001 15 129 4.8 11.3 0.00 0.00 0.00 58 1014.3
20260507121502 15 141 4.8 9.7 0.00 0.00 0.00 56 1014.3
20260507121002 15 155 4.8 12.9 0.00 0.00 0.00 60 1014.2
20260507120501 15 150 6.4 12.9 0.00 0.00 0.00 58 1014.2
20260507120023 16 159 6.4 14.5 0.00 0.00 0.00 59 1014.2
20260507115502 16 160 6.4 14.5 0.00 0.00 0.00 57 1014.2
20260507115002 16 150 4.8 12.9 0.00 0.00 0.00 57 1014.2
20260507114503 17 148 6.4 14.5 0.00 0.00 0.00 59 1014.2
20260507114023 17 158 6.4 14.5 0.00 0.00 0.00 62 1014.1
20260507113502 16 154 6.4 12.9 0.00 0.00 0.00 59 1014.1
20260507113002 16 129 4.8 11.3 0.00 0.00 0.00 63 1014.2
20260507112502 15 131 6.4 17.7 0.00 0.00 0.00 65 1014.2
20260507112023 15 130 4.8 17.7 0.00 0.00 0.00 64 1014.3
20260507111503 15 135 3.2 9.7 0.00 0.00 0.00 62 1014.3
20260507111002 15 132 4.8 12.9 0.00 0.00 0.00 64 1014.3
20260507110523 14 123 4.8 12.9 0.00 0.00 0.00 63 1014.4
20260507110002 14 130 3.2 11.3 0.00 0.00 0.00 65 1014.4
20260507105502 14 131 3.2 9.7 0.00 0.00 0.00 66 1014.4
20260507105002 14 147 3.2 9.7 0.00 0.00 0.00 66 1014.4
20260507104502 14 158 4.8 14.5 0.00 0.00 0.00 65 1014.4
20260507104003 14 161 6.4 14.5 0.00 0.00 0.00 65 1014.4
20260507103502 14 149 6.4 11.3 0.00 0.00 0.00 65 1014.4
20260507103024 14 138 4.8 11.3 0.00 0.00 0.00 63 1014.4
20260507102502 14 162 4.8 12.9 0.00 0.00 0.00 64 1014.4
20260507102002 14 163 4.8 12.9 0.00 0.00 0.00 64 1014.4
20260507101502 15 144 1.6 8.0 0.00 0.00 0.00 64 1014.5
20260507101002 15 155 3.2 12.9 0.00 0.00 0.00 64 1014.5
20260507100502 15 143 4.8 12.9 0.00 0.00 0.00 65 1014.4
20260507100002 15 135 4.8 11.3 0.00 0.00 0.00 65 1014.4
20260507095502 15 150 4.8 12.9 0.00 0.00 0.00 66 1014.4
20260507095002 15 146 4.8 12.9 0.00 0.00 0.00 64 1014.5
20260507094502 15 129 4.8 12.9 0.00 0.00 0.00 64 1014.4
20260507094023 15 133 4.8 12.9 0.00 0.00 0.00 67 1014.4
20260507093502 14 110 1.6 6.4 0.00 0.00 0.00 68 1014.4
20260507093002 14 114 3.2 6.4 0.00 0.00 0.00 66 1014.4
20260507092502 15 150 3.2 8.0 0.00 0.00 0.00 66 1014.4
20260507092002 15 149 4.8 12.9 0.00 0.00 0.00 66 1014.4
20260507091502 14 142 4.8 12.9 0.00 0.00 0.00 67 1014.4
20260507091023 14 120 3.2 11.3 0.00 0.00 0.00 67 1014.4
20260507090523 14 146 4.8 12.9 0.00 0.00 0.00 66 1014.4
20260507090002 14 154 4.8 12.9 0.00 0.00 0.00 68 1014.5
20260507085523 14 105 3.2 9.7 0.00 0.00 0.00 66 1014.5
20260507085002 15 133 3.2 9.7 0.00 0.00 0.00 67 1014.6
20260507084502 14 160 4.8 9.7 0.00 0.00 0.00 69 1014.6
20260507084002 14 176 4.8 12.9 0.00 0.00 0.00 69 1014.5
20260507083523 14 179 4.8 12.9 0.00 0.00 0.00 70 1014.5
20260507083002 14 188 3.2 12.9 0.00 0.00 0.00 71 1014.4
20260507082502 14 189 4.8 16.1 0.00 0.00 0.00 72 1014.5
20260507082002 13 195 4.8 16.1 0.00 0.00 0.00 73 1014.5
20260507081502 13 208 3.2 6.4 0.00 0.00 0.00 73 1014.4
20260507081002 13 194 3.2 6.4 0.00 0.00 0.00 73 1014.5
20260507080523 13 201 3.2 9.7 0.00 0.00 0.00 74 1014.5
20260507080002 13 186 3.2 9.7 0.00 0.00 0.00 73 1014.4
20260507075502 13 166 3.2 9.7 0.00 0.00 0.00 73 1014.4
20260507075002 13 136 4.8 11.3 0.00 0.00 0.00 73 1014.4
20260507074504 13 115 4.8 11.3 0.00 0.00 0.00 73 1014.4
20260507074024 13 111 4.8 11.3 0.00 0.00 0.00 74 1014.4
20260507073524 13 127 4.8 12.9 0.00 0.00 0.00 75 1014.3
20260507073003 12 139 4.8 12.9 0.00 0.00 0.00 77 1014.4
20260507072503 12 147 3.2 11.3 0.00 0.00 0.00 80 1014.3
20260507072024 11 125 3.2 12.9 0.00 0.00 0.00 82 1014.2
20260507071505 11 85 3.2 12.9 0.00 0.00 0.00 83 1014.2
20260507071003 10 120 3.2 8.0 0.00 0.00 0.00 85 1014.2
20260507070503 10 192 3.2 8.0 0.00 0.00 0.00 87 1014.3
20260507070003 10 172 3.2 8.0 0.00 0.00 0.00 88 1014.3
20260507065502 9 63 3.2 8.0 0.00 0.00 0.00 89 1014.2
20260507065002 9 54 3.2 8.0 0.00 0.00 0.00 90 1014.1
20260507064523 8 58 1.6 6.4 0.00 0.00 0.00 91 1014.1
20260507064002 8 69 1.6 6.4 0.00 0.00 0.00 91 1014.1
20260507063502 8 76 1.6 6.4 0.00 0.00 0.00 91 1014.1
20260507063002 7 69 1.6 6.4 0.00 0.00 0.00 91 1014.2
20260507062504 7 62 3.2 6.4 0.00 0.00 0.00 91 1014.2
20260507062002 7 61 1.6 6.4 0.00 0.00 0.00 92 1014.2
20260507061502 7 54 1.6 6.4 0.00 0.00 0.00 92 1014.2
20260507061002 7 44 1.6 6.4 0.00 0.00 0.00 92 1014.2
20260507060502 6 359 0.0 3.2 0.00 0.00 0.00 92 1014.2
20260507060002 6 6 0.0 1.6 0.00 0.00 0.00 92 1014.1
20260507055502 6 0 0.0 0.0 0.00 0.00 0.00 91 1014.1
20260507055002 5 0 0.0 0.0 0.00 0.00 0.00 91 1014.1
20260507054502 5 0 0.0 0.0 0.00 0.00 0.00 91 1014.1
20260507054002 5 0 0.0 0.0 0.00 0.00 0.00 91 1014.1
20260507053502 5 0 0.0 0.0 0.00 0.00 0.00 91 1014.1
20260507053003 4 0 0.0 0.0 0.00 0.00 0.00 91 1014.1
20260507052502 4 0 0.0 0.0 0.00 0.00 0.00 91 1014.1
20260507052023 4 5 0.0 1.6 0.00 0.00 0.00 91 1014.0
20260507051523 4 5 0.0 1.6 0.00 0.00 0.00 91 1014.0
20260507051023 3 0 0.0 1.6 0.00 0.00 0.00 91 1014.0
20260507050502 3 0 0.0 0.0 0.00 0.00 0.00 91 1014.0
20260507050002 3 0 0.0 0.0 0.00 0.00 0.00 90 1014.0
20260507045502 3 0 0.0 1.6 0.00 0.00 0.00 90 1013.9
20260507045002 3 0 0.0 1.6 0.00 0.00 0.00 90 1013.9
20260507044502 3 0 0.0 0.0 0.00 0.00 0.00 90 1013.9
20260507044002 3 0 0.0 0.0 0.00 0.00 0.00 90 1013.9
20260507043502 3 5 0.0 1.6 0.00 0.00 0.00 90 1013.9
20260507043003 3 5 0.0 1.6 0.00 0.00 0.00 90 1013.9
20260507042504 3 0 0.0 1.6 0.00 0.00 0.00 90 1013.8
20260507042004 3 0 0.0 0.0 0.00 0.00 0.00 90 1013.9
20260507041524 3 0 0.0 0.0 0.00 0.00 0.00 90 1013.9
20260507041003 3 0 0.0 0.0 0.00 0.00 0.00 90 1013.9
20260507040503 2 0 0.0 0.0 0.00 0.00 0.00 90 1013.9
20260507040003 2 0 0.0 0.0 0.00 0.00 0.00 90 1013.9
20260507035502 2 0 0.0 0.0 0.00 0.00 0.00 90 1013.9
20260507035004 2 0 0.0 0.0 0.00 0.00 0.00 90 1013.9
20260507034502 2 0 0.0 0.0 0.00 0.00 0.00 90 1013.9
20260507034002 2 0 0.0 0.0 0.00 0.00 0.00 89 1013.9
20260507033502 2 0 0.0 0.0 0.00 0.00 0.00 89 1013.9
20260507033002 2 0 0.0 0.0 0.00 0.00 0.00 90 1013.9
20260507032502 2 0 0.0 0.0 0.00 0.00 0.00 90 1013.9
20260507032002 2 0 0.0 0.0 0.00 0.00 0.00 89 1013.9
20260507031502 2 0 0.0 0.0 0.00 0.00 0.00 89 1013.9
20260507031002 2 0 0.0 0.0 0.00 0.00 0.00 89 1013.9
20260507030502 2 0 0.0 0.0 0.00 0.00 0.00 89 1013.8
20260507030024 2 0 0.0 0.0 0.00 0.00 0.00 89 1013.8
20260507025502 2 5 0.0 1.6 0.00 0.00 0.00 89 1013.8
20260507025002 2 5 0.0 1.6 0.00 0.00 0.00 88 1013.8
20260507024502 2 0 0.0 0.0 0.00 0.00 0.00 88 1013.7
20260507024002 2 0 0.0 0.0 0.00 0.00 0.00 88 1013.7
20260507023502 2 0 0.0 0.0 0.00 0.00 0.00 88 1013.7
20260507023002 2 0 0.0 0.0 0.00 0.00 0.00 88 1013.7
20260507022502 2 0 0.0 0.0 0.00 0.00 0.00 88 1013.7
20260507022002 2 0 0.0 0.0 0.00 0.00 0.00 88 1013.7
20260507021502 2 0 0.0 0.0 0.00 0.00 0.00 88 1013.7
20260507021002 2 0 0.0 0.0 0.00 0.00 0.00 88 1013.7
20260507020502 2 0 0.0 0.0 0.00 0.00 0.00 88 1013.7
20260507020003 2 0 0.0 0.0 0.00 0.00 0.00 88 1013.7
20260507015523 2 0 0.0 0.0 0.00 0.00 0.00 88 1013.7
20260507015004 2 0 0.0 0.0 0.00 0.00 0.00 88 1013.6
20260507014523 2 0 0.0 0.0 0.00 0.00 0.00 88 1013.6
20260507014003 2 0 0.0 0.0 0.00 0.00 0.00 87 1013.5
20260507013502 3 0 0.0 0.0 0.00 0.00 0.00 87 1013.5
20260507013023 3 0 0.0 0.0 0.00 0.00 0.00 87 1013.5
20260507012502 3 0 0.0 0.0 0.00 0.00 0.00 87 1013.6
20260507012002 3 0 0.0 0.0 0.00 0.00 0.00 87 1013.6
20260507011504 3 0 0.0 0.0 0.00 0.00 0.00 87 1013.6
20260507011003 3 0 0.0 0.0 0.00 0.00 0.00 87 1013.6
20260507010504 3 0 0.0 0.0 0.00 0.00 0.00 86 1013.6
20260507010004 3 0 0.0 0.0 0.00 0.00 0.00 86 1013.6
20260507005504 3 0 0.0 0.0 0.00 0.00 0.00 86 1013.6
20260507005004 3 0 0.0 0.0 0.00 0.00 0.00 86 1013.6
20260507004503 3 0 0.0 0.0 0.00 0.00 0.00 86 1013.6
20260507004023 3 0 0.0 0.0 0.00 0.00 0.00 86 1013.6
20260507003503 3 0 0.0 0.0 0.00 0.00 0.00 86 1013.7
20260507003004 4 0 0.0 0.0 0.00 0.00 0.00 86 1013.6
20260507002503 4 0 0.0 0.0 0.00 0.00 0.00 85 1013.7
20260507002003 4 0 0.0 0.0 0.00 0.00 0.00 85 1013.6
20260507001524 4 0 0.0 0.0 0.00 0.00 0.00 85 1013.6
20260507001003 4 0 0.0 0.0 0.00 0.00 0.00 85 1013.6
20260507000504 4 0 0.0 0.0 0.00 0.00 0.00 85 1013.6
20260507000025 5 0 0.0 0.0 0.00 0.00 0.00 84 1013.6
20260506235503 5 0 0.0 0.0 0.00 0.00 0.00 84 1013.6
20260506235003 5 0 0.0 0.0 0.00 0.00 0.00 83 1013.6
20260506234503 5 0 0.0 0.0 0.00 0.00 0.00 83 1013.6
20260506234003 5 0 0.0 0.0 0.00 0.00 0.00 82 1013.6
20260506233503 5 0 0.0 0.0 0.00 0.00 0.00 82 1013.5
20260506233003 5 0 0.0 0.0 0.00 0.00 0.00 81 1013.5
20260506232503 5 0 0.0 0.0 0.00 0.00 0.00 81 1013.5
20260506232003 5 0 0.0 0.0 0.00 0.00 0.00 81 1013.5
20260506231503 6 0 0.0 0.0 0.00 0.00 0.00 80 1013.5
20260506231003 6 0 0.0 0.0 0.00 0.00 0.00 80 1013.5
20260506230503 6 0 0.0 0.0 0.00 0.00 0.00 79 1013.5
20260506230003 6 0 0.0 0.0 0.00 0.00 0.00 78 1013.5
20260506225504 6 0 0.0 0.0 0.00 0.00 0.00 77 1013.5
20260506225024 6 5 0.0 1.6 0.00 0.00 0.00 76 1013.5
20260506224525 7 5 0.0 1.6 0.00 0.00 0.00 75 1013.5
20260506224003 7 0 0.0 0.0 0.00 0.00 0.00 74 1013.4
20260506223524 7 0 0.0 0.0 0.00 0.00 0.00 74 1013.4
20260506223003 7 0 0.0 0.0 0.00 0.00 0.00 74 1013.4
20260506222503 8 0 0.0 0.0 0.00 0.00 0.00 73 1013.4
20260506222003 8 0 0.0 0.0 0.00 0.00 0.00 72 1013.4
20260506221503 8 0 0.0 0.0 0.00 0.00 0.00 72 1013.3
20260506221004 8 0 0.0 0.0 0.00 0.00 0.00 72 1013.3
20260506220505 8 5 0.0 1.6 0.00 0.00 0.00 71 1013.3
20260506220003 9 5 0.0 1.6 0.00 0.00 0.00 71 1013.2
20260506215504 9 0 0.0 0.0 0.00 0.00 0.00 70 1013.2
20260506215005 10 0 0.0 0.0 0.00 0.00 0.00 69 1013.2
20260506214505 10 5 0.0 1.6 0.00 0.00 0.00 69 1013.2
20260506214003 10 16 0.0 3.2 0.00 0.00 0.00 68 1013.2
20260506213504 10 17 0.0 3.2 0.00 0.00 0.00 68 1013.2
20260506213003 10 53 0.0 1.6 0.00 0.00 0.00 68 1013.1
20260506212524 11 53 0.0 3.2 0.00 0.00 0.00 68 1013.1
20260506212003 11 53 0.0 3.2 0.00 0.00 0.00 67 1013.1
20260506211503 11 44 0.0 4.8 0.00 0.00 0.00 67 1013.0
20260506211003 11 44 1.6 6.4 0.00 0.00 0.00 67 1013.0
20260506210503 11 47 3.2 8.0 0.00 0.00 0.00 67 1013.0
20260506210004 11 49 3.2 8.0 0.00 0.00 0.00 67 1012.9
20260506205503 11 50 3.2 8.0 0.00 0.00 0.00 66 1012.8
20260506205003 11 56 3.2 8.0 0.00 0.00 0.00 66 1012.8
20260506204503 11 58 3.2 8.0 0.00 0.00 0.00 66 1012.7
20260506204024 11 45 1.6 6.4 0.00 0.00 0.00 66 1012.7
20260506203504 11 35 1.6 6.4 0.00 0.00 0.00 65 1012.7
20260506203024 12 50 1.6 6.4 0.00 0.00 0.00 65 1012.7
20260506202505 12 52 1.6 4.8 0.00 0.00 0.00 65 1012.6
20260506202003 12 46 1.6 4.8 0.00 0.00 0.00 63 1012.6
20260506201503 12 50 1.6 9.7 0.00 0.00 0.00 63 1012.5
20260506201003 12 53 3.2 12.9 0.00 0.00 0.00 62 1012.5
20260506200504 12 53 3.2 12.9 0.00 0.00 0.00 62 1012.5
20260506200003 12 50 1.6 6.4 0.00 0.00 0.00 62 1012.5
20260506195524 12 43 1.6 6.4 0.00 0.00 0.00 61 1012.4
20260506195003 12 32 0.0 4.8 0.00 0.00 0.00 60 1012.4
20260506194503 12 40 0.0 3.2 0.00 0.00 0.00 58 1012.4
20260506194003 12 45 0.0 3.2 0.00 0.00 0.00 58 1012.3
20260506193503 12 43 1.6 6.4 0.00 0.00 0.00 58 1012.2
20260506193003 12 39 1.6 6.4 0.00 0.00 0.00 57 1012.2
20260506192503 13 47 0.0 4.8 0.00 0.00 0.00 57 1012.1
20260506192001 13 39 1.6 8.0 0.00 0.00 0.00 56 1012.1
20260506191501 13 39 3.2 8.0 0.00 0.00 0.00 57 1012.1
20260506191022 13 31 3.2 8.0 0.00 0.00 0.00 56 1012.0
20260506190501 13 13 3.2 8.0 0.00 0.00 0.00 57 1012.0
20260506190001 13 14 1.6 6.4 0.00 0.00 0.00 57 1012.0
20260506185502 13 23 1.6 9.7 0.00 0.00 0.00 56 1011.9
20260506185002 13 29 1.6 9.7 0.00 0.00 0.00 56 1011.9
20260506184502 13 34 1.6 4.8 0.00 0.00 0.00 54 1011.8
20260506184022 13 36 1.6 4.8 0.00 0.00 0.00 54 1011.9
20260506183502 13 35 1.6 4.8 0.00 0.00 0.00 53 1011.8
20260506183003 13 36 1.6 4.8 0.00 0.00 0.00 52 1011.8
20260506182501 13 37 1.6 6.4 0.00 0.00 0.00 54 1011.7
20260506182001 14 36 1.6 6.4 0.00 0.00 0.00 53 1011.7
20260506181501 14 36 3.2 8.0 0.00 0.00 0.00 53 1011.7
20260506181001 14 49 3.2 9.7 0.00 0.00 0.00 51 1011.6
20260506180501 14 51 1.6 9.7 0.00 0.00 0.00 51 1011.5
20260506180022 14 14 1.6 9.7 0.00 0.00 0.00 52 1011.5
20260506175522 14 354 3.2 9.7 0.00 0.00 0.00 50 1011.4
20260506175001 14 3 3.2 8.0 0.00 0.00 0.00 51 1011.3
20260506174501 14 14 1.6 8.0 0.00 0.00 0.00 50 1011.3
20260506174002 14 1 1.6 3.2 0.00 0.00 0.00 49 1011.3
20260506173501 14 356 1.6 6.4 0.00 0.00 0.00 49 1011.3
20260506173001 14 348 1.6 8.0 0.00 0.00 0.00 48 1011.3
20260506172501 14 344 3.2 8.0 0.00 0.00 0.00 49 1011.3
20260506172001 14 336 3.2 6.4 0.00 0.00 0.00 48 1011.3
20260506171501 14 313 3.2 8.0 0.00 0.00 0.00 49 1011.3
20260506171001 14 324 3.2 12.9 0.00 0.00 0.00 49 1011.2
20260506170501 14 353 3.2 12.9 0.00 0.00 0.00 49 1011.2
20260506170001 14 19 3.2 12.9 0.00 0.00 0.00 50 1011.2
20260506165501 14 35 3.2 8.0 0.00 0.00 0.00 49 1011.2
20260506165001 14 28 3.2 8.0 0.00 0.00 0.00 49 1011.3
20260506164501 14 20 3.2 9.7 0.00 0.00 0.00 49 1011.3
20260506164001 14 11 3.2 12.9 0.00 0.00 0.00 50 1011.3
20260506163522 14 16 3.2 12.9 0.00 0.00 0.00 49 1011.3
20260506163001 14 8 3.2 6.4 0.00 0.00 0.00 48 1011.3
20260506162522 15 14 3.2 6.4 0.00 0.00 0.00 49 1011.3
20260506162001 15 47 1.6 6.4 0.00 0.00 0.00 49 1011.3
20260506161522 15 20 1.6 6.4 0.00 0.00 0.00 49 1011.2
20260506161001 15 343 3.2 9.7 0.00 0.00 0.00 48 1011.2
20260506160501 15 345 1.6 9.7 0.00 0.00 0.00 49 1011.3
20260506160001 15 39 1.6 9.7 0.00 0.00 0.00 51 1011.3
20260506155501 15 36 3.2 9.7 0.00 0.00 0.00 51 1011.3
20260506155023 15 36 3.2 9.7 0.00 0.00 0.00 50 1011.4
20260506154502 15 39 1.6 9.7 0.00 0.00 0.00 50 1011.3
20260506154002 15 358 1.6 8.0 0.00 0.00 0.00 49 1011.4
20260506153501 15 12 3.2 8.0 0.00 0.00 0.00 49 1011.3
20260506153003 15 30 1.6 6.4 0.00 0.00 0.00 49 1011.3
20260506152503 15 337 1.6 6.4 0.00 0.00 0.00 50 1011.4
20260506152023 15 335 3.2 6.4 0.00 0.00 0.00 49 1011.3
20260506151501 15 13 1.6 6.4 0.00 0.00 0.00 49 1011.4
20260506151001 15 346 3.2 8.0 0.00 0.00 0.00 51 1011.4
20260506150501 15 327 3.2 12.9 0.00 0.00 0.00 49 1011.4
20260506150001 15 15 3.2 12.9 0.00 0.00 0.00 49 1011.4
20260506145501 15 33 3.2 9.7 0.00 0.00 0.00 49 1011.4
20260506145001 15 28 3.2 9.7 0.00 0.00 0.00 47 1011.5
20260506144503 15 55 3.2 9.7 0.00 0.00 0.00 50 1011.5
20260506144001 15 37 3.2 11.3 0.00 0.00 0.00 48 1011.5
20260506143501 15 23 4.8 16.1 0.00 0.00 0.00 49 1011.5
20260506143001 15 27 4.8 16.1 0.00 0.00 0.00 49 1011.5
20260506142501 16 1 6.4 12.9 0.00 0.00 0.00 48 1011.5
20260506142001 16 336 4.8 12.9 0.00 0.00 0.00 44 1011.5
20260506141501 16 335 4.8 12.9 0.00 0.00 0.00 46 1011.5
20260506141001 15 346 3.2 12.9 0.00 0.00 0.00 50 1011.5
20260506140522 15 6 3.2 12.9 0.00 0.00 0.00 49 1011.6
20260506140001 15 11 4.8 12.9 0.00 0.00 0.00 46 1011.5